DO2DV-13 Weather Reports


Display with metric or nautical units.
time (UTC)temp
F
wind
direction
speed
MPH
gust
MPH
rain 1hr
in
rain 24hr
in
rain mn
in
humidity
%
barometer
mb
20260506002042 52 0.0 0.0 0.00 0.09 0.00 99 1007.7
20260506001127 52 0.0 0.0 0.00 0.09 0.00 99 1007.8
20260506000027 53 0.0 0.0 0.00 0.09 0.00 99 1007.8
20260505235051 53 23 0.0 2.0 0.00 0.09 0.00 99 1007.8
20260505234115 53 0.0 0.0 0.00 0.09 0.00 99 1007.8
20260505233035 53 0.0 0.0 0.00 0.09 0.00 99 1007.9
20260505232059 54 3 1.0 2.0 0.00 0.09 0.00 99 1007.9
20260505231123 53 0.0 0.0 0.00 0.09 0.00 99 1008.2
20260505225108 54 27 0.0 1.0 0.00 0.09 0.00 99 1008.2
20260505224047 54 0.0 0.0 0.00 0.09 0.00 99 1008.1
20260505223050 54 0.0 0.0 0.00 0.09 0.00 99 1008.1
20260505222115 54 0.0 0.0 0.00 0.09 0.00 99 1008.1
20260505221035 54 0.0 0.0 0.00 0.09 0.00 99 1008.0
20260505220059 54 0.0 0.0 0.00 0.09 0.00 99 1008.1
20260505215123 54 3 1.0 2.0 0.00 0.09 0.09 99 1008.2
20260505214043 54 0.0 0.0 0.00 0.09 0.09 99 1008.1
20260505213107 54 0.0 0.0 0.00 0.09 0.09 99 1008.0
20260505212027 55 0.0 0.0 0.00 0.09 0.09 99 1008.1
20260505211051 55 351 0.0 1.0 0.00 0.09 0.09 99 1008.0
20260505210135 55 6 1.0 2.0 0.00 0.09 0.09 99 1008.2
20260505205036 55 0.0 0.0 0.00 0.09 0.09 99 1008.1
20260505204059 55 204 1.0 3.0 0.00 0.09 0.09 99 1008.2
20260505203124 56 0.0 0.0 0.00 0.09 0.09 99 1008.1
20260505202043 56 0.0 0.0 0.00 0.09 0.09 99 1008.1
20260505201107 56 0.0 0.0 0.00 0.09 0.09 99 1008.1
20260505200027 56 0.0 0.0 0.01 0.09 0.09 99 1007.9
20260505195051 56 0.0 0.0 0.01 0.09 0.09 99 1007.9
20260505194115 56 0.0 0.0 0.02 0.09 0.09 99 1007.8
20260505193036 56 0.0 0.0 0.03 0.09 0.09 99 1007.6
20260505192059 56 0.0 0.0 0.04 0.09 0.09 99 1007.5
20260505191124 56 0.0 0.0 0.06 0.09 0.09 99 1007.6
20260505190044 56 0.0 0.0 0.05 0.08 0.08 99 1007.7
20260505185108 56 0.0 0.0 0.05 0.08 0.08 99 1007.7
20260505184028 57 0.0 0.0 0.04 0.07 0.07 99 1007.5
20260505183035 57 0.0 0.0 0.04 0.06 0.06 99 1007.6
20260505182059 57 311 0.0 1.0 0.03 0.05 0.05 98 1007.5
20260505181143 57 0.0 0.0 0.02 0.03 0.03 98 1007.6
20260505180043 58 0.0 0.0 0.02 0.03 0.03 96 1007.5
20260505175127 58 0.0 0.0 0.02 0.03 0.03 95 1007.6
20260505174028 58 0.0 0.0 0.02 0.03 0.03 93 1007.5
20260505173051 58 0.0 0.0 0.01 0.02 0.02 90 1007.5
20260505172135 59 317 0.0 1.0 0.01 0.02 0.02 88 1007.6
20260505171036 60 247 0.0 1.0 0.00 0.01 0.01 86 1007.5
20260505170059 60 105 0.0 1.0 0.00 0.01 0.01 84 1007.6
20260505165124 60 302 1.0 3.0 0.00 0.01 0.01 84 1007.5
20260505164044 60 0.0 0.0 0.00 0.01 0.01 83 1007.6
20260505163107 60 233 1.0 2.0 0.00 0.01 0.01 84 1007.7
20260505162027 61 0.0 0.0 0.00 0.01 0.01 84 1007.7
20260505161132 61 187 0.0 1.0 0.00 0.01 0.01 84 1007.7
20260505160136 61 39 1.0 2.0 0.00 0.01 0.01 85 1007.8
20260505153123 60 88 0.0 2.0 0.00 0.01 0.01 85 1007.9
20260505152044 60 69 1.0 3.0 0.00 0.01 0.01 85 1008.0
20260505151108 61 125 1.0 3.0 0.00 0.01 0.01 85 1008.0
20260505124027 60 243 0.0 1.0 0.00 0.00 0.00 85 1009.2
20260505123051 60 210 0.0 1.0 0.00 0.00 0.00 85 1009.1
20260505122116 61 269 1.0 3.0 0.00 0.00 0.00 82 1009.0
20260505121035 61 236 2.0 3.0 0.00 0.00 0.00 80 1009.1
20260505120100 62 175 2.0 6.0 0.00 0.00 0.00 78 1009.1
20260505115020 62 224 3.0 5.0 0.00 0.00 0.00 76 1009.0
20260505114043 62 240 2.0 3.0 0.00 0.00 0.00 74 1009.1
20260505113108 62 256 2.0 5.0 0.00 0.00 0.00 74 1009.2
20260505112028 62 230 1.0 2.0 0.00 0.00 0.00 74 1009.2
20260505111052 61 272 1.0 3.0 0.00 0.00 0.00 74 1009.2
20260505110116 62 290 1.0 2.0 0.00 0.00 0.00 74 1009.2
20260505102043 62 179 2.0 5.0 0.00 0.00 0.00 73 1009.2
20260505101107 63 208 3.0 3.0 0.00 0.00 0.00 72 1009.3
20260505100048 63 227 1.0 5.0 0.00 0.00 0.00 73 1009.4
20260505095051 63 246 2.0 3.0 0.00 0.00 0.00 74 1009.4
20260505094116 63 170 2.0 5.0 0.00 0.00 0.00 72 1009.5
20260505093117 63 252 1.0 2.0 0.00 0.00 0.00 71 1009.4
20260505092100 63 184 1.0 2.0 0.00 0.00 0.00 69 1009.5
20260505091020 64 174 2.0 3.0 0.00 0.00 0.00 68 1009.4
20260505090044 63 249 2.0 5.0 0.00 0.00 0.00 69 1009.6
20260505085108 64 188 3.0 7.0 0.00 0.00 0.00 70 1009.6
20260505084047 63 200 2.0 5.0 0.00 0.00 0.00 70 1009.7
20260505083052 64 0.0 0.0 0.00 0.00 0.00 70 1009.7
20260505082116 63 230 0.0 1.0 0.00 0.00 0.00 72 1009.8
20260505081056 63 0.0 0.0 0.00 0.00 0.00 72 1009.8
20260505080141 64 0.0 0.0 0.00 0.00 0.00 70 1009.8
20260505075020 63 0.0 0.0 0.00 0.00 0.00 71 1009.9
20260505074044 63 0.0 0.0 0.00 0.00 0.00 71 1009.9
20260505073129 63 0.0 0.0 0.00 0.00 0.00 74 1010.0
20260505072027 63 0.0 0.0 0.00 0.00 0.00 71 1010.1
20260505071053 63 0.0 0.0 0.00 0.00 0.00 73 1010.1
20260505070137 61 0.0 0.0 0.00 0.00 0.00 76 1010.2
20260505065035 59 0.0 0.0 0.00 0.00 0.00 81 1010.2
20260505064101 58 0.0 0.0 0.00 0.00 0.00 82 1010.3
20260505063020 59 0.0 0.0 0.00 0.00 0.00 81 1010.2
20260505062044 58 0.0 0.0 0.00 0.00 0.00 82 1010.2
20260505061109 56 0.0 0.0 0.00 0.00 0.00 86 1010.2
20260505060028 56 0.0 0.0 0.00 0.00 0.00 86 1010.3
20260505055052 55 0.0 0.0 0.00 0.00 0.00 90 1010.3
20260505054116 52 0.0 0.0 0.00 0.00 0.00 96 1010.5
20260505053036 51 0.0 0.0 0.00 0.00 0.00 98 1010.4
20260505052100 51 0.0 0.0 0.00 0.00 0.00 99 1010.4
20260505051020 50 0.0 0.0 0.00 0.00 0.00 99 1010.3
20260505041035 50 0.0 0.0 0.00 0.00 0.00 99 1010.3
20260505040045 50 0.0 0.0 0.00 0.00 0.00 98 1010.4
20260505035128 50 0.0 0.0 0.00 0.00 0.00 98 1010.3
20260505034028 51 0.0 0.0 0.00 0.00 0.00 97 1010.2
20260505033052 51 0.0 0.0 0.00 0.00 0.00 96 1010.4
20260505032116 52 0.0 0.0 0.00 0.00 0.00 96 1010.6
20260505031036 52 0.0 0.0 0.00 0.00 0.00 95 1010.6
20260505030100 52 0.0 0.0 0.00 0.00 0.00 95 1010.7
20260505025040 52 0.0 0.0 0.00 0.00 0.00 95 1010.7
20260505024045 52 0.0 0.0 0.00 0.00 0.00 95 1010.7
20260505023108 53 0.0 0.0 0.00 0.00 0.00 95 1010.9
20260505022049 53 0.0 0.0 0.00 0.00 0.00 95 1011.1
20260505021053 53 0.0 0.0 0.00 0.00 0.00 95 1011.1
20260505020116 53 0.0 0.0 0.00 0.00 0.00 94 1011.2
20260505015036 53 0.0 0.0 0.00 0.00 0.00 94 1011.3
20260505014100 53 0.0 0.0 0.00 0.00 0.00 93 1011.3
20260505013020 53 0.0 0.0 0.00 0.00 0.00 93 1011.3
20260505012105 53 0.0 0.0 0.00 0.00 0.00 93 1011.4
20260505011108 53 0.0 0.0 0.00 0.00 0.00 93 1011.7
20260505010028 53 0.0 0.0 0.00 0.00 0.00 92 1011.9
20260505005053 53 0.0 0.0 0.00 0.00 0.00 92 1011.9
20260505004116 53 0.0 0.0 0.00 0.00 0.00 92 1012.2
20260505003036 53 0.0 0.0 0.00 0.00 0.00 92 1012.2